OBJECT BQ (43820 NORAD) Tracking and Keplerian Element Data

This shows tracking and keplerian element data for the satellite.

Feedback or suggestion? Click here.




ElementValue
Catalog43820
NameOBJECT BQ
Epoch Orbit508
Epoch Day10.82786952
Epoch Year2019
RAAN84.602
Inclination97.7591
Eccentricity0.0013943
Argument of Perigee126.6274
Mean Anonmoly233.6231
Mean Motion14.95301899
Decay Rate2.26E-06
L11 43820U 18099BQ 19010.82786952 .00000226 00000-0 25736-4 0 9999
L22 43820 97.7591 84.6020 0013943 126.6274 233.6231 14.95301899 5087

Live tracking and technical data element details for OBJECT BQ (NORAD 43820). OBJECT BQ can be tracked NOW for your location showing map with azimuth and elevation plus other details from your city location.

Track the satellite on the map from your city or location and see movement details for azimuth, elevation, latitude, longitude, range, height, and movement on the map or in text.







IsCatalogInMostPopularTable: catalog: 43820, numindb: 22
Update: records affected: 1



GetName: 43820 OBJECT BQ

Hit Count: updated at: Thu, 17 Jan 2019 16:05:37 GMT